Terminal Aerodrome Forecast
Issued by NWS Omaha/Valley, NE

Home | Current Version | Previous Version | Text Only | Print | Product List | Glossary On
Versions: 1 2 3 4 5 6 7 8 9 10 11 12 13 14 15 16 17 18 19
000
FTUS43 KOAX 171720
TAFLNK
TAF
KLNK 171720Z 1718/1818 30005KT P6SM SKC
     FM172300 24004KT P6SM SKC
     FM180300 VRB03KT 6SM BR FEW250
     FM181500 20004KT P6SM SCT080=

USA.gov is the U.S. government's official web portal to all federal, state and local government web resources and services.